SCP
0 0 0 0 0 0 0 0 0 0 0 0 0 0 0 0 0 0 0 0 0 0 0 0 0 0 0 0 0 0 0 0 0 0 0 0 0 0 0 0 0 0 0
0 0 0 0 0 0 0 0 0 0 0 0 0 0 0 0 0 0 0 0 0 0 0 0 0 0 0 0 0 0 0 0 0 0 0 0 0 0 0 0 0 0 0
1 1 1 1 1 1 1 1 0 0 0 0 0 0 0 0 0 0 0 0 0 0 0 0 0 0 0 0 0 0 0 0 0 0 0 0 0 0 0 0 0 0 0
1 1 1 1 1 1 1 1 1 0 0 0 0 0 0 0 0 0 0 0 0 0 0 0 0 0 0 0 0 0 0 0 0 0 0 0 0 0 0 0 0 0 0
1 1 1 1 1 1 1 1 1 0 0 0 0 0 0 0 0 0 0 0 0 0 0 0 0 0 0 0 0 0 0 0 0 0 0 0 0 0 0 0 0 0 0
1 1 1 1 1 1 1 1 1 0 0 0 0 0 0 0 0 0 0 0 0 0 0 0 0 0 0 0 0 0 0 0 0 0 0 0 0 0 0 0 0 0 0
1 1 1 1 1 1 1 1 0 0 0 0 0 0 0 0 0 0 0 0 0 0 0 0 0 0 0 0 0 0 0 0 0 0 0 0 0 0 0 0 0 0 0
1 1 1 1 1 1 1 1 0 0 0 0 0 0 0 0 0 0 0 0 0 0 0 0 0 0 0 0 0 0 0 0 0 0 0 0 0 0 0 0 0 0 0
1 1 1 1 1 1 1 1 0 0 0 0 0 0 0 0 0 0 0 0 0 0 0 0 0 0 0 0 0 0 0 0 0 0 0 0 0 0 0 0 0 0 0
1 1 1 1 1 1 1 1 0 0 0 0 0 0 0 0 0 0 0 0 0 0 0 0 0 0 0 0 0 0 0 0 0 0 0 0 0 0 0 0 0 0 0
1 1 1 1 1 1 1 1 0 0 0 0 0 0 0 0 0 0 0 0 0 0 0 0 0 0 0 0 0 0 0 0 0 0 0 0 0 0 0 0 0 0 0
1 1 1 1 1 1 1 1 0 0 0 0 0 0 0 0 0 0 0 0 0 0 0 0 0 0 0 0 0 0 0 0 0 0 0 0 0 0 0 0 0 0 0
1 1 1 1 1 1 1 1 0 0 0 0 0 0 0 0 0 0 0 0 0 0 0 0 0 0 0 0 0 0 0 0 0 0 0 0 0 0 0 0 0 0 0
1 1 1 1 1 1 1 1 0 0 0 0 0 0 0 0 0 0 0 0 0 0 0 0 0 0 0 0 0 0 0 0 0 0 0 0 0 0 0 0 0 0 0
1 1 1 1 1 1 1 0 0 0 0 0 0 0 0 0 0 0 0 0 0 0 0 0 0 0 0 0 0 0 0 0 0 0 0 0 0 0 0 0 0 0 0
1 1 1 1 1 1 0 0 0 0 0 0 0 0 0 0 0 0 0 0 0 0 0 0 0 0 0 0 0 0 0 0 0 0 0 0 0 0 0 0 0 0 0
1 1 1 1 0 0 0 0 0 0 0 0 0 0 0 0 0 0 0 0 0 0 0 0 0 0 0 0 0 0 0 0 0 0 0 0 0 0 0 0 0 0 0
1 1 1 1 0 0 0 0 0 0 0 0 0 0 0 0 0 0 0 0 0 0 0 0 0 0 0 0 0 0 0 0 0 0 0 0 0 0 0 0 0 0 0
1 1 1 0 0 0 0 0 0 0 0 0 0 0 0 0 0 0 0 0 0 0 0 0 0 0 0 0 0 0 0 0 0 0 0 0 0 0 0 0 0 0 0
1 0 0 0 0 0 0 0 0 0 0 0 0 0 0 0 0 0 0 0 0 0 0 0 0 0 0 0 0 0 0 0 0 0 0 0 0 0 0 0 0 0 0
0 0 0 0 0 0 0 0 0 0 0 0 0 0 0 0 0 0 0 0 0 0 0 0 0 0 0 0 0 0 0 0 0 0 0 0 0 0 0 0 0 0 0
0 0 0 0 0 0 0 0 0 0 0 0 0 0 0 0 0 0 0 0 0 0 0 0 0 0 0 0 0 0 0 0 0 0 0 0 0 0 0 0 0 0 0
0 0 0 0 0 0 0 0 0 0 0 0 0 0 0 0 0 0 0 0 0 0 0 0 0 0 0 0 0 0 0 0 0 0 0 0 0 0 0 0 0 0 0
0 0 0 0 0 0 0 0 0 0 0 0 0 0 0 0 0 0 0 0 0 0 0 0 0 0 0 0 0 0 0 0 0 0 0 0 0 0 0 0 0 0 0
0 0 0 0 0 0 0 0 0 0 0 0 0 0 0 0 0 0 0 0 0 0 0 0 0 0 0 0 0 0 0 0 0 0 0 0 0 0 0 0 0 0 0
0 0 0 0 0 0 0 0 0 0 0 0 0 0 0 0 0 0 0 0 0 0 0 0 0 0 0 0 0 0 0 0 0 0 0 0 0 0 0 0 0 0 0
Wind_Speed
5 4 3 2 2 2 1 0 0 0 1 0 0 0 1 1 1 1 1 1 1 1 1 1 2 3 2 2 2 2 2 2 3 2 0 1 1 2 2 2 3 3 5
5 5 4 3 2 2 2 1 1 1 1 1 1 1 1 1 1 1 1 0 0 0 1 1 1 1 2 2 1 2 2 2 2 2 1 1 1 2 2 2 3 4 5
6 5 4 4 3 2 2 2 2 2 1 2 2 2 2 2 2 2 2 2 2 2 2 2 2 2 2 2 2 2 1 0 1 2 1 1 1 1 2 2 3 3 4
6 6 5 4 3 3 3 2 2 2 3 3 3 3 3 3 3 3 3 3 3 4 4 4 4 4 3 2 1 1 1 1 1 2 2 1 1 1 1 1 2 2 2
6 6 5 5 4 4 4 3 3 3 4 4 4 4 4 3 4 4 4 4 4 5 5 6 7 8 9 7 4 4 2 1 1 1 1 1 1 1 1 0 1 2 3
6 6 6 6 5 5 5 5 5 5 5 5 5 5 5 5 8 8 5 5 4 5 5 6 6 8 9 10 11 10 8 4 3 2 2 2 1 1 0 0 1 1 1
7 6 7 6 6 5 5 6 5 5 5 5 5 5 6 8 8 8 7 5 5 5 5 5 5 6 6 6 8 8 9 8 6 4 3 3 2 1 1 1 1 1 2
7 7 6 6 6 6 6 5 5 5 5 5 5 6 6 7 6 6 5 5 6 6 6 6 6 6 5 4 6 7 7 7 6 5 4 4 4 3 1 1 2 3 3
7 6 6 6 7 7 6 6 5 5 5 5 5 5 6 6 6 5 3 5 5 6 6 6 5 5 6 4 5 6 6 6 7 7 6 5 5 5 4 1 1 2 2
6 6 6 5 6 7 7 6 6 5 5 5 6 5 6 6 6 6 4 3 4 4 5 6 8 7 6 6 4 5 5 5 5 5 5 3 4 4 3 3 2 1 1
7 7 7 7 7 7 7 6 6 6 6 6 6 5 5 6 6 7 7 2 3 3 4 4 6 7 7 6 4 5 3 2 3 4 4 4 4 4 4 4 4 4 3
7 7 7 7 6 7 7 6 6 6 7 6 5 5 4 5 5 5 7 7 5 4 4 5 6 6 7 6 5 4 3 3 2 3 4 4 4 5 5 5 5 5 5
8 7 7 7 6 6 7 7 6 5 4 4 4 4 4 4 5 5 5 6 6 4 6 8 6 4 4 6 6 3 2 1 3 3 4 4 4 4 3 3 4 3 3
8 8 7 7 7 6 4 4 4 4 4 4 3 4 4 4 3 4 4 5 5 5 6 7 6 3 3 4 3 2 3 4 3 3 3 3 3 3 3 3 2 2 2
8 7 7 7 6 6 4 3 2 3 2 1 2 3 3 4 3 3 1 2 2 3 3 4 4 4 3 3 3 3 3 2 2 3 3 3 3 3 3 3 2 2 2
7 7 6 6 6 6 6 5 9 7 7 7 6 3 4 6 6 4 4 4 3 0 1 3 3 3 3 3 2 2 2 2 2 2 2 2 2 2 2 2 2 3 3
6 6 5 6 6 6 6 6 6 6 6 6 5 5 6 6 6 4 4 3 2 2 2 3 3 3 2 2 1 2 2 2 2 1 2 2 2 2 1 2 2 2 2
6 6 5 5 5 5 5 5 5 6 6 5 5 5 5 5 5 4 4 4 4 3 2 2 2 2 2 1 1 1 1 2 1 1 1 1 2 2 2 2 2 3 3
5 5 5 5 5 5 5 5 5 6 5 6 6 6 5 6 5 3 4 3 2 2 2 2 1 1 1 1 1 1 1 1 1 1 1 1 2 2 2 3 2 1 4
5 6 5 5 5 5 5 5 5 5 5 5 5 6 7 7 5 5 4 2 2 2 2 1 1 1 1 1 1 1 1 0 1 1 1 1 2 3 3 4 4 3 3
5 6 7 6 5 6 5 5 5 5 5 5 4 4 3 5 5 5 4 3 2 2 2 2 2 2 2 1 1 1 1 1 1 2 2 2 3 3 4 4 4 4 4
5 6 6 5 5 5 5 5 5 5 5 5 5 6 5 5 3 3 3 3 3 2 2 2 2 2 1 1 1 1 2 2 2 2 3 3 3 4 4 5 5 5 5
6 6 6 5 5 5 5 5 5 5 5 5 5 6 6 5 3 3 3 3 2 2 2 2 2 2 2 1 2 2 3 3 3 3 4 4 5 5 5 5 6 7 6
6 6 6 5 5 5 5 5 5 5 5 5 5 5 5 4 4 3 3 2 2 3 3 3 3 2 2 2 2 3 2 3 4 4 5 6 6 6 6 6 7 8 7
5 5 5 5 5 5 5 5 5 5 5 4 4 4 4 4 4 4 4 3 4 3 4 4 3 3 3 4 3 2 3 3 2 5 5 6 7 7 7 8 7 8 8
5 5 5 5 5 4 5 5 5 5 5 5 4 4 4 4 4 4 4 4 4 4 4 4 4 4 4 4 2 1 1 0 2 4 6 6 7 7 7 7 9 8 9
Wind_Direction
157 155 151 151 155 157 151 124 67 18 4 356 324 334 343 346 334 313 296 271 244 266 272 260 269 288 292 284 269 262 259 241 239 265 216 112 92 55 73 73 79 77 79
154 151 149 145 139 136 115 98 89 73 38 23 20 38 23 26 21 15 336 25 301 8 358 351 324 316 318 318 310 285 273 247 217 220 199 140 102 80 76 69 65 69 77
151 151 146 139 132 125 112 104 90 78 64 62 55 47 39 44 50 47 45 47 48 43 37 26 3 350 347 352 334 326 319 210 162 174 175 92 86 75 84 89 80 69 79
153 150 142 133 124 119 111 106 95 86 81 72 64 58 57 57 60 63 69 66 60 50 43 38 25 15 5 4 24 26 35 93 129 146 137 110 91 84 69 106 104 86 63
152 148 141 133 122 118 114 108 103 94 87 81 76 68 59 58 52 58 75 75 69 63 57 55 53 52 45 34 34 37 39 46 83 103 108 93 66 63 21 340 103 119 87
151 145 138 132 129 125 111 98 91 86 80 79 77 73 65 58 50 45 48 75 71 68 67 65 71 70 71 68 60 53 43 41 47 60 72 73 53 18 347 125 111 130 85
146 145 140 139 133 124 117 112 107 100 94 86 82 82 78 66 53 53 50 71 75 70 67 63 65 68 69 79 88 87 69 54 42 43 58 40 44 28 348 83 72 59 64
146 146 143 142 132 124 121 115 111 109 102 94 89 89 89 76 57 56 57 83 81 76 72 68 69 65 53 55 80 79 72 59 49 55 57 42 36 14 352 84 127 131 122
147 145 145 144 135 130 127 124 119 116 110 106 98 96 93 82 52 37 27 93 89 81 73 64 62 72 39 23 82 86 82 84 83 76 65 63 54 33 4 29 105 131 114
146 139 137 137 134 133 130 128 124 123 118 111 97 89 87 84 55 26 357 99 98 97 90 82 64 55 34 17 72 83 84 76 79 94 97 101 83 75 43 14 5 31 76
137 134 134 135 135 132 129 129 129 127 118 109 102 92 84 81 75 43 14 47 87 95 94 88 75 57 48 35 42 68 53 32 90 91 89 82 78 68 58 48 22 9 13
139 139 137 139 137 134 133 134 137 137 134 128 120 112 100 90 73 63 44 39 36 87 84 86 86 75 66 51 57 44 341 303 85 80 74 66 60 58 58 53 48 44 36
142 140 139 138 134 138 142 145 148 151 149 141 141 131 118 111 105 94 77 62 48 75 81 77 89 102 117 93 70 22 332 50 67 71 70 66 63 57 59 80 90 88 88
145 144 145 143 139 133 138 146 148 149 151 147 143 138 133 131 129 133 131 128 129 119 113 119 127 105 94 90 110 85 56 43 40 64 69 70 71 70 49 34 38 46 58
145 146 147 144 139 135 124 90 114 91 64 119 135 145 150 143 95 47 71 109 106 107 133 139 132 125 112 96 89 75 68 74 65 60 62 64 63 60 50 35 12 2 15
149 153 151 147 146 144 137 116 57 67 72 60 45 54 90 88 109 102 82 72 74 122 196 129 121 116 108 99 95 95 85 65 56 56 56 49 46 47 40 29 9 0 6
153 153 153 152 151 152 150 150 139 108 85 76 70 73 91 113 121 125 126 129 159 213 177 121 116 113 108 103 92 79 81 79 47 38 39 33 21 12 8 7 359 350 352
153 147 153 152 152 154 156 158 155 151 146 133 112 106 118 131 139 153 168 177 164 188 152 120 121 119 112 98 96 84 81 89 81 27 25 11 358 343 343 337 350 349 335
153 151 151 147 151 155 157 160 158 155 150 146 142 138 150 155 160 175 200 212 152 150 148 142 138 129 128 126 107 94 72 59 23 316 353 341 329 322 329 325 330 338 299
141 133 147 150 151 155 159 161 159 158 160 160 160 155 157 171 170 166 185 200 193 164 160 159 145 151 169 183 181 187 190 194 213 258 328 322 314 311 313 311 317 313 303
147 147 154 157 158 160 161 164 165 169 167 165 163 143 171 187 175 171 180 189 202 194 180 184 181 188 184 194 204 202 227 261 293 308 314 310 308 307 305 305 303 300 303
158 162 168 165 163 166 168 172 172 171 173 174 164 152 177 217 194 183 186 192 195 196 190 201 210 196 197 211 235 267 279 288 299 302 303 300 295 294 297 299 304 307 301
168 165 167 167 166 162 176 177 177 178 180 181 176 167 176 200 198 197 200 201 204 203 200 208 222 221 219 239 255 264 278 296 306 308 300 296 296 295 297 300 300 298 300
168 166 167 167 169 173 179 179 182 186 185 185 186 185 183 188 202 204 211 200 204 209 212 216 224 227 239 259 268 270 314 340 319 299 294 294 294 295 297 296 295 298 298
169 168 170 175 179 180 181 183 185 191 194 196 194 192 191 194 203 207 208 205 208 212 216 221 224 226 235 252 271 313 57 44 332 312 289 283 288 293 296 297 296 297 296
176 177 177 175 174 177 181 188 194 197 199 199 197 198 200 201 207 208 204 204 210 211 217 223 231 236 243 249 256 86 122 188 275 287 285 281 284 287 293 291 294 293 295